Temp
72 70 73 75 74 75 74 74 74 74 71 70 70 70 70 70 70 71 71 70 70 71 71 72 72 73 75 75 74 74 74 74 73
71 71 73 74 75 76 75 74 74 73 71 71 70 71 71 69 70 71 71 70 71 72 72 74 73 73 74 75 74 74 74 73 73
70 71 72 74 75 75 76 76 76 74 73 72 71 72 72 71 71 71 71 71 70 71 73 72 73 73 73 75 75 74 73 73 74
69 70 71 73 75 75 76 77 75 74 73 72 72 72 70 72 71 71 71 72 72 73 73 73 72 72 73 74 74 74 72 73 74
71 71 71 72 74 74 73 75 74 73 74 72 73 73 70 71 72 72 72 72 72 73 73 73 73 72 73 73 74 74 73 74 75
70 71 70 70 71 73 72 74 73 72 73 74 75 74 71 71 73 72 72 73 73 73 73 73 73 72 72 73 73 72 71 72 73
71 70 70 69 68 69 70 72 72 72 72 74 74 74 71 70 73 73 73 73 73 73 73 73 73 73 72 72 72 72 72 72 71
69 69 71 69 68 68 68 70 72 72 73 72 74 73 72 71 73 73 73 73 72 73 72 74 74 73 72 72 73 75 71 71 71
63 65 68 69 70 69 69 71 71 73 72 72 72 73 73 73 70 71 72 72 71 72 72 72 72 73 73 72 75 70 69 71 71
62 64 66 66 67 70 70 72 73 72 73 73 73 73 74 73 72 70 71 71 72 71 71 72 72 72 73 72 73 67 67 68 70
62 63 64 64 67 67 69 72 73 74 74 73 73 73 73 72 71 71 72 71 71 72 72 72 72 73 73 73 73 66 65 68 70
62 63 63 63 64 66 66 70 72 72 72 73 72 73 73 72 73 72 71 71 72 72 71 71 72 73 73 73 73 63 63 65 69
62 64 65 65 65 67 67 67 70 71 71 72 71 73 73 73 73 72 72 72 72 72 72 72 71 71 73 70 73 61 60 64 70
62 63 63 65 65 63 64 65 68 70 70 71 73 75 74 72 73 73 73 73 72 72 72 72 71 71 72 72 71 64 58 60 70
61 61 62 63 63 63 64 64 65 68 69 71 72 72 72 72 72 73 72 72 71 71 71 70 70 70 68 68 67 59 56 57 62
60 60 61 62 62 63 63 64 64 64 67 71 71 71 71 72 72 72 72 72 71 70 70 70 68 68 66 64 63 60 55 55 56
58 59 60 61 63 62 62 64 65 64 66 67 71 70 72 72 71 70 70 71 70 70 70 69 69 67 66 63 61 61 61 60 61
59 57 59 60 59 60 62 63 63 64 65 68 69 70 70 69 69 68 64 59 61 67 64 66 69 68 66 63 61 62 58 59 62
59 59 57 58 59 59 60 62 62 63 64 65 70 69 68 66 65 63 61 61 59 52 50 48 51 53 62 62 56 49 49 49 49
59 59 57 57 58 59 59 59 61 63 64 64 68 68 67 67 64 65 63 61 61 61 54 47 45 48 49 52 53 47 46 45 45
MSLP
1004.40 1004.97 1005.34 1005.81 1006.25 1006.93 1007.59 1008.44 1009.24 1010.02 1010.93 1011.80 1012.49 1013.18 1013.63 1014.18 1014.63 1015.00 1015.50 1015.91 1016.18 1016.58 1016.88 1017.08 1017.21 1017.55 1017.74 1017.99 1018.32 1018.49 1018.69 1019.03 1019.30
1004.40 1004.79 1004.72 1005.05 1005.72 1006.28 1007.04 1007.69 1008.39 1009.13 1010.16 1011.04 1011.76 1012.38 1013.10 1013.62 1014.14 1014.57 1014.93 1015.49 1015.76 1016.18 1016.39 1016.63 1016.90 1017.04 1017.40 1017.61 1017.94 1018.19 1018.37 1018.79 1019.02
1004.16 1004.19 1004.50 1004.77 1004.99 1005.58 1006.19 1006.51 1007.31 1008.37 1009.09 1009.73 1010.44 1011.56 1012.21 1012.92 1013.50 1014.11 1014.48 1015.02 1015.44 1015.80 1016.08 1016.34 1016.61 1016.79 1016.95 1017.17 1017.31 1017.61 1018.15 1018.42 1018.55
1003.73 1003.62 1003.88 1004.19 1004.63 1004.95 1005.69 1006.54 1007.26 1007.75 1008.38 1009.13 1009.95 1010.60 1011.64 1012.27 1012.99 1013.60 1014.04 1014.45 1014.87 1015.27 1015.56 1015.86 1016.20 1016.43 1016.57 1016.76 1017.00 1017.28 1017.72 1018.07 1018.23
1003.39 1003.28 1003.33 1003.61 1004.07 1004.84 1005.38 1005.93 1006.68 1007.13 1008.01 1009.43 1009.84 1009.88 1010.86 1011.53 1012.08 1012.86 1013.51 1013.91 1014.25 1014.63 1015.01 1015.30 1015.64 1016.03 1016.30 1016.40 1016.62 1016.96 1017.37 1017.64 1017.76
1003.55 1003.31 1003.32 1003.57 1003.99 1004.25 1004.77 1005.29 1006.03 1006.66 1007.41 1008.05 1008.50 1009.23 1009.81 1010.83 1011.34 1011.92 1012.59 1013.20 1013.67 1014.12 1014.48 1014.83 1015.16 1015.48 1015.76 1015.89 1016.16 1016.53 1016.99 1017.23 1017.33
1003.64 1003.75 1003.51 1003.71 1003.92 1003.97 1004.41 1005.01 1005.46 1006.00 1006.72 1007.37 1007.95 1008.72 1009.15 1009.65 1010.14 1010.79 1011.61 1012.40 1012.99 1013.49 1013.84 1014.29 1014.61 1014.89 1015.20 1015.46 1015.74 1016.04 1016.33 1016.64 1016.94
1004.77 1004.74 1004.83 1004.38 1004.37 1003.72 1004.14 1004.65 1005.15 1005.63 1006.43 1007.01 1007.41 1008.10 1008.78 1009.27 1010.04 1010.68 1011.21 1011.67 1012.23 1012.84 1013.34 1013.68 1014.01 1014.34 1014.63 1014.94 1015.27 1015.47 1015.86 1016.13 1016.33
1006.43 1005.76 1005.55 1005.32 1004.84 1005.06 1004.46 1003.90 1004.43 1005.17 1005.46 1006.40 1007.11 1007.53 1007.84 1009.10 1009.57 1009.85 1010.49 1011.27 1011.39 1012.01 1012.50 1012.92 1013.32 1013.60 1013.83 1014.20 1014.46 1014.77 1015.10 1015.51 1015.94
1007.44 1006.94 1006.17 1005.67 1005.29 1004.68 1004.35 1004.26 1004.31 1004.21 1004.63 1005.44 1006.09 1006.63 1007.69 1008.22 1008.54 1009.18 1009.77 1010.12 1010.91 1011.10 1011.41 1011.96 1012.28 1012.58 1013.00 1013.27 1013.46 1013.80 1014.32 1015.30 1015.52
1008.07 1007.48 1006.69 1006.03 1005.42 1004.79 1004.09 1003.90 1003.74 1004.17 1004.60 1004.45 1005.24 1006.00 1006.47 1006.24 1007.38 1008.57 1009.50 1009.21 1010.04 1010.48 1010.80 1011.04 1011.42 1011.88 1012.17 1012.43 1012.68 1013.14 1013.84 1014.03 1014.58
1008.79 1008.18 1007.45 1006.80 1006.15 1005.37 1004.78 1004.20 1003.59 1003.91 1004.23 1004.18 1004.68 1005.17 1005.37 1005.56 1006.57 1006.38 1007.79 1008.84 1009.40 1009.87 1010.47 1010.74 1010.96 1011.19 1011.47 1011.79 1012.11 1012.35 1012.88 1013.68 1014.08
1009.09 1008.55 1007.88 1007.27 1006.50 1005.95 1005.26 1004.53 1003.86 1003.73 1003.96 1004.06 1004.18 1004.56 1004.82 1005.05 1005.57 1006.62 1007.09 1007.88 1008.59 1008.95 1009.50 1009.78 1010.15 1010.53 1010.76 1011.10 1011.42 1011.71 1012.06 1012.56 1012.93
1009.31 1008.96 1008.26 1007.58 1007.01 1006.52 1005.91 1005.02 1004.43 1004.20 1003.99 1003.71 1003.70 1004.22 1004.75 1005.29 1005.83 1006.38 1006.60 1007.25 1007.98 1008.38 1008.92 1009.45 1009.67 1009.92 1010.11 1010.49 1011.11 1011.89 1012.04 1012.18 1012.46
1009.25 1008.74 1008.31 1007.99 1007.15 1006.71 1006.04 1005.70 1005.11 1004.84 1004.22 1004.04 1004.06 1004.18 1004.43 1004.85 1005.15 1005.70 1006.21 1006.86 1007.45 1008.17 1008.61 1009.10 1009.47 1009.78 1010.42 1010.76 1011.12 1011.60 1012.01 1012.19 1012.42
1008.90 1008.60 1008.04 1007.77 1007.55 1006.97 1006.25 1005.95 1005.40 1005.23 1004.25 1004.11 1003.79 1004.13 1003.91 1004.17 1004.57 1005.20 1005.61 1006.37 1007.05 1007.83 1008.41 1008.76 1009.43 1009.79 1010.49 1011.06 1011.52 1012.09 1012.36 1012.40 1012.58
1008.28 1008.23 1007.84 1007.35 1007.26 1006.84 1006.31 1005.88 1005.55 1005.02 1004.86 1004.62 1003.92 1003.72 1003.25 1003.77 1004.40 1004.91 1005.42 1006.05 1006.86 1007.61 1007.97 1008.75 1009.36 1009.84 1010.33 1011.01 1011.64 1012.07 1012.52 1012.74 1013.01
1007.31 1007.42 1007.29 1007.00 1006.77 1006.46 1005.81 1005.45 1005.10 1005.35 1004.90 1004.83 1004.33 1003.69 1003.42 1003.74 1004.35 1005.19 1006.10 1007.03 1007.52 1007.92 1008.24 1008.48 1008.76 1009.37 1009.91 1010.63 1011.39 1011.71 1012.10 1012.47 1012.90
1006.66 1006.49 1006.50 1006.37 1006.23 1005.96 1005.44 1004.96 1004.80 1004.60 1004.16 1004.36 1004.14 1003.44 1003.61 1003.66 1004.08 1005.35 1006.74 1008.05 1008.50 1009.07 1009.18 1009.11 1008.95 1009.05 1009.48 1010.42 1010.56 1011.31 1012.03 1012.53 1012.87
1005.90 1005.86 1005.81 1005.68 1005.41 1005.12 1004.96 1004.58 1004.00 1003.81 1003.79 1004.03 1003.95 1003.04 1003.24 1003.96 1004.35 1003.92 1005.21 1006.66 1008.36 1009.18 1009.87 1009.99 1009.67 1009.59 1009.80 1009.84 1010.39 1010.95 1011.59 1012.39 1012.94
Wind_Speed
5 8 11 15 17 16 17 17 15 14 14 13 13 13 13 10 9 7 6 7 5 5 5 5 5 6 6 6 5 5 5 3 3
5 8 13 15 15 16 16 18 18 18 15 13 14 14 11 11 10 9 8 7 7 5 5 5 5 7 7 7 7 7 6 5 5
6 8 9 10 14 16 16 17 17 15 15 18 16 13 12 11 11 10 7 7 8 8 6 5 5 6 7 7 7 7 6 4 5
8 8 9 10 12 13 14 13 15 16 15 15 14 14 11 11 10 10 8 9 8 9 7 6 6 6 6 8 8 6 6 7 5
6 4 8 8 10 10 13 14 15 16 14 10 11 13 12 12 12 11 11 11 9 8 9 6 7 6 7 7 7 6 8 9 8
7 4 5 6 9 13 13 14 14 15 15 19 14 15 14 13 12 13 13 11 9 9 9 7 5 5 7 7 7 6 7 7 7
7 4 5 5 6 9 9 11 12 14 14 14 14 14 14 16 16 15 13 11 10 10 9 8 8 7 7 7 7 7 7 7 7
10 11 7 4 6 9 8 9 10 10 10 11 13 14 14 15 10 10 11 12 12 11 10 10 9 8 7 7 7 7 8 8 8
9 11 11 9 4 6 6 12 13 11 12 14 13 14 15 10 11 11 13 12 12 12 12 12 11 11 11 10 8 10 14 11 7
8 9 11 12 9 6 6 9 11 15 14 12 15 15 11 12 11 9 10 12 11 13 14 11 13 12 11 12 12 15 12 10 7
10 12 13 12 10 9 7 4 8 8 11 15 15 14 13 14 15 17 13 11 13 11 10 13 12 11 11 10 9 12 14 17 11
10 11 11 7 7 7 8 7 5 7 10 12 13 14 14 16 16 8 11 11 12 10 8 7 9 8 10 10 8 13 14 12 10
12 12 10 11 9 7 7 8 4 6 9 11 13 13 14 12 11 12 13 14 13 10 8 9 7 8 8 9 7 10 11 10 5
5 7 11 12 9 5 7 8 7 4 5 11 11 9 8 10 12 14 14 11 9 10 9 7 9 8 6 7 7 6 10 10 5
7 9 7 9 9 10 7 6 6 6 5 4 5 6 8 9 11 9 7 9 6 6 7 7 6 6 4 3 5 6 7 8 5
5 8 8 4 6 8 8 7 5 5 7 6 7 8 10 11 11 10 9 9 8 5 6 6 8 8 6 4 3 4 7 7 6
5 5 7 5 5 6 8 6 4 6 7 9 7 9 10 9 9 8 8 6 5 6 6 6 8 7 6 5 4 4 3 4 5
8 6 5 5 6 7 9 6 6 7 8 6 9 6 4 5 4 5 6 7 4 3 3 2 8 6 7 8 6 6 9 8 6
12 11 6 6 6 6 9 7 8 7 6 4 7 4 4 7 10 10 7 4 3 12 9 5 3 7 8 2 5 14 13 10 10
17 14 9 7 8 8 8 10 10 6 6 6 7 5 5 5 5 12 18 6 3 3 5 9 8 5 9 11 11 15 16 12 11
Wind_Direction
195 174 184 186 183 183 185 182 183 180 178 175 178 183 186 186 184 187 187 192 184 195 191 198 184 192 200 208 203 204 205 219 226
195 204 199 189 184 185 183 184 185 185 181 183 182 187 180 183 185 191 187 184 187 197 200 207 196 197 199 207 203 207 199 212 221
267 217 203 196 186 187 189 190 187 184 185 189 182 183 184 184 187 194 185 176 189 193 204 204 202 203 200 209 209 198 196 222 225
300 230 198 193 198 188 188 181 186 189 189 181 179 182 183 179 181 189 182 192 196 200 196 195 210 210 209 209 217 203 193 220 225
310 271 210 192 177 175 183 186 184 190 186 180 200 185 175 185 175 177 187 199 200 195 204 190 207 202 206 209 213 192 207 218 211
338 323 206 186 166 183 184 187 183 187 183 195 188 181 177 186 184 181 191 199 195 196 202 205 199 194 209 212 205 199 216 220 216
328 340 197 213 190 180 181 190 187 188 188 190 184 188 183 190 189 187 189 189 187 195 196 196 201 201 207 214 208 205 212 217 232
351 344 337 259 237 188 178 185 190 187 189 186 185 185 194 198 193 187 185 185 186 189 193 204 206 199 208 214 218 225 214 215 218
359 353 343 333 311 295 247 185 178 184 180 180 185 196 198 178 180 184 186 197 182 185 196 201 195 207 208 211 223 209 211 210 222
349 344 335 334 326 318 236 206 191 191 185 174 184 196 189 179 191 190 195 189 193 196 199 197 206 208 204 213 219 206 204 186 230
353 341 340 333 331 327 327 240 210 190 185 178 184 189 180 180 179 187 197 183 202 210 200 195 200 207 207 212 220 188 190 197 211
343 342 325 302 312 315 315 303 225 193 186 181 183 191 187 181 208 185 174 188 201 201 191 191 203 206 202 206 223 195 193 177 200
334 335 339 336 327 322 337 339 292 175 187 182 192 197 192 186 189 193 188 196 199 196 195 210 194 205 198 206 214 182 178 172 169
306 303 323 327 332 336 313 327 333 231 194 206 205 196 179 174 182 193 198 193 187 191 188 190 197 205 189 178 173 171 165 172 161
308 311 303 303 318 313 315 333 348 294 240 242 221 176 171 180 187 196 189 184 187 180 185 188 190 167 137 134 142 128 137 146 149
278 296 303 296 267 298 299 295 291 310 301 287 215 198 187 193 189 190 181 181 182 172 187 179 169 169 158 150 120 101 92 95 115
263 248 294 301 293 278 281 278 287 270 276 286 264 222 199 188 183 178 175 170 172 172 171 162 173 170 150 143 147 145 148 129 127
283 237 238 280 293 286 279 273 267 232 263 280 262 236 196 163 130 111 80 57 41 109 76 183 166 169 162 156 172 191 171 155 158
285 287 246 254 263 267 285 280 262 270 225 271 275 240 163 153 121 106 75 56 52 36 40 14 71 171 164 130 118 143 156 159 145
279 280 269 248 273 277 282 283 269 228 203 205 238 232 169 159 191 140 159 151 162 172 42 43 39 142 158 155 162 160 156 145 129